Flag for U.S.A. Weather past 2 weeks in Chula Vista, California, U.S.A.

Now
77 °F

Sunny.


Feels Like: 79 °F
Forecast: 60 / 78 °F
Wind: 10 mph from West

Location: Brown Field Municipal Airport

Current Time: Jul 28, 2015 at 1:14:14 PM

Latest Report: Jul 28, 2015 at 11:53 AM


Visibility: 10 mi

Pressure: 29.88 "Hg

Humidity: 60%

Dew point: 62 °F

Location of Chula VistaLocation

Historic Weather in Chula Vista — Graph

°F

Chula Vista temperature yesterday

Maximum temperature yesterday: 76 °F (at 12:53 PM)
Minimum temperature yesterday: 64 °F (at 9:53 PM)
Average temperature yesterday: 69 °F

Past Weeks' High & Low Weather Summary

 TemperatureHumidityPressure
High89 °F (Jul 19, 11:53 AM)100% (Jul 20, 9:53 PM)30.06 "Hg (Jul 20, 9:53 PM)
Low61 °F (Jul 28, 3:53 AM)46% (Jul 18, 3:53 PM)29.81 "Hg (Jul 17, 6:53 PM)
Average71 °F77%29.93 "Hg
* Reported Jul 13 11:53 AM — Jul 28 11:53 AM, Chula Vista, Weather by CustomWeather, © 2015

Note: Actual official high and low records may vary slightly from our data, if they occured in-between our weather recording intervals... More about our weather records

Advertising

Chula Vista weather history for previous 24 hours

 ConditionsComfort  
Time TempWeatherWind HumidityBarometerVisibility
11:53 AM
Tue, Jul 28
77 °FSunny.10 mph60%29.88 "Hg10 mi
10:53 AM76 °FPassing clouds.N/A62%29.90 "Hg10 mi
9:53 AM70 °FScattered clouds.No wind73%29.90 "Hg10 mi
8:53 AM67 °FLow clouds.5 mph81%29.92 "Hg9 mi
7:53 AM65 °FLow clouds.No wind87%29.91 "Hg8 mi
6:53 AM64 °FLow clouds.No wind87%29.90 "Hg9 mi
5:53 AM63 °FLow clouds.No wind90%29.88 "Hg10 mi
4:53 AM61 °FLow clouds.3 mph93%29.88 "Hg9 mi
3:53 AM61 °FPassing clouds.3 mph93%29.88 "Hg10 mi
2:53 AM63 °FPassing clouds.No wind87%29.88 "Hg10 mi
1:53 AM63 °FPassing clouds.No wind90%29.88 "Hg10 mi
12:53 AM63 °FClear.No wind90%29.89 "Hg10 mi
11:53 PM
Mon, Jul 27
64 °FClear.No wind87%29.90 "Hg10 mi
10:53 PM64 °FClear.3 mph87%29.90 "Hg10 mi
9:53 PM64 °FClear.No wind87%29.90 "Hg10 mi
8:53 PM65 °FClear.5 mph85%29.89 "Hg10 mi
7:53 PM67 °FSunny.5 mph79%29.88 "Hg10 mi
6:53 PM69 °FSunny.7 mph73%29.87 "Hg10 mi
5:53 PM71 °FSunny.6 mph68%29.87 "Hg10 mi
4:53 PM73 °FSunny.8 mph62%29.88 "Hg10 mi
3:53 PM74 °FSunny.9 mph60%29.88 "Hg10 mi
2:53 PM75 °FSunny.10 mph58%29.90 "Hg10 mi
1:53 PM75 °FSunny.14 mph60%29.90 "Hg10 mi
Weather by CustomWeather, © 2015

See weather overviewHow to use our weather pages